Location: Unspecified
(0.0000°N, 0.0000°E)
Time: 05:04:21
(UTC+00:00)

SRMSAT - Pass Details

Date: 11 December 2017
Orbit: 848 x 866 km, 20.0° (Epoch: 15 July)

Event Time Altitude Azimuth Distance (km) Brightness Sun altitude
Rises 18:58:05 0° 255° (WSW) 3,397 ? -14.8°
Reaches altitude 10° 19:01:29 10° 236° (SW) 2,461 ? -15.6°
Maximum altitude 19:05:23 18° 194° (SSW) 1,961 ? -16.5°
Drops below altitude 10° 19:09:17 10° 153° (SSE) 2,462 ? -17.4°
Sets 19:12:42 0° 134° (SE) 3,398 ? -18.2°
